"Pseudo-MPEC" for P21Fi6i

Created 2023 Jun 2 19:22:07 UT using Find_Orb

Click here for an explanation of pseudo-MPECs

 
 Astrometry: 
     P21Fi6i* C2023 05 13\yohhj[+g(AstrometryN=fV7redacted;nY1`mPQY,TAlFfc\fYF52
     P21Fi6i  C2023 05 13JT#+:j#vr@bN2V-CUMG43!click/HPC^V/JYnd#L`vlhere#JXY2F52
     P21Fi6i  C2023 05 13PA)w/=S?CUo@9ewH50qT4Cn0iq4H+$[A-for2QexplanationJeJF52

Station data:
(F52) Pan-STARRS 2, Haleakala  (N20.707382 W156.255910)  US/Hawaii.
   Observers J. Bulger, T. Dukes, T. Lowe, A. Schultz, M. Willman. Measurers
   K. Chambers, S. Chastel, T. de Boer, L. Denneau, J. Fairlamb, H.
   Flewelling, M. Huber, C.-C. Lin, E. Magnier, Y. Ramanjooloo, R. Wainscoat,
   R. Weryk. 1.8-m Ritchey-Chrétien + CCD.

Orbital elements:  P21Fi6i
   Perihelion 2024 Feb 10.90849 +/- 209 TT = 21:48:13 (JD 2460351.40849)
Epoch 2023 May 14.0 TT = JDT 2460078.5   Earth MOID: 0.6660   Ma: 0.0822
M 237.43201533 +/- 90               (J2000 ecliptic)             AutoNEOCP
n   0.44911752 +/- 0.275            Peri.  250.97772 +/- 90
a   1.68873971 +/- 0.689            Node   105.88955 +/- 39
e   0.0103728 +/- 0.286             Incl.   29.20517 +/- 24
P   2.19/801.56d           H 19.97  G  0.15   U 11.9  SR
q 1.67122268 +/- 0.873    Q 1.70625673 +/- 40.6
From 3 observations 2023 May 13 (18.5 min); mean residual 0".13
Residuals in arcseconds: 
230513 F52  .06-  .12+    230513 F52  .13+  .23-    230513 F52  .07-  .12+    

Ephemerides (geocentric):
Date (UTC) HH   RA             Dec           delta  r     elong  mag " sig PA
---- --------  ------------   ------------  ------ ------ -----  --- --------
2023 06 02 19  16 16 24.894   +23 24 32.64  .82633 1.6959 134.0 21.9  35d 159
2023 06 02 20  16 16 20.811   +23 23 41.92  .82631 1.6959 134.0 21.9  35d 159
2023 06 02 21  16 16 16.729   +23 22 51.11  .82629 1.6959 134.0 21.9  35d 159
2023 06 02 22  16 16 12.649   +23 22 00.23  .82627 1.6959 134.0 21.9  35d 159
2023 06 02 23  16 16 08.570   +23 21 09.26  .82625 1.6959 134.0 21.9  36d 159
2023 06 03 00  16 16 04.493   +23 20 18.22  .82623 1.6959 134.0 21.9  36d 159
2023 06 03 01  16 16 00.417   +23 19 27.10  .82621 1.6959 134.0 21.9  36d 159
2023 06 03 02  16 15 56.342   +23 18 35.91  .82619 1.6959 134.0 21.9  36d 159
2023 06 03 03  16 15 52.269   +23 17 44.63  .82618 1.6959 134.0 21.9  36d 159
2023 06 03 04  16 15 48.198   +23 16 53.28  .82616 1.6959 134.0 21.9  36d 159
2023 06 03 05  16 15 44.128   +23 16 01.85  .82614 1.6959 134.0 21.9  36d 159
2023 06 03 06  16 15 40.059   +23 15 10.34  .82612 1.6959 134.0 21.9  36d 159
2023 06 03 07  16 15 35.992   +23 14 18.75  .82611 1.6959 134.0 21.9  36d 159
2023 06 03 08  16 15 31.926   +23 13 27.09  .82609 1.6959 134.0 21.9  36d 159
2023 06 03 09  16 15 27.862   +23 12 35.35  .82607 1.6959 134.0 21.9  36d 159
2023 06 03 10  16 15 23.799   +23 11 43.53  .82606 1.6958 134.0 21.9  36d 159
2023 06 03 11  16 15 19.738   +23 10 51.63  .82604 1.6958 134.0 21.9  36d 159
2023 06 03 12  16 15 15.679   +23 09 59.66  .82603 1.6958 134.0 21.9  36d 159
2023 06 03 13  16 15 11.621   +23 09 07.61  .82601 1.6958 134.0 21.9  36d 159
2023 06 03 14  16 15 07.564   +23 08 15.48  .82600 1.6958 134.0 21.9  36d 159
2023 06 03 15  16 15 03.509   +23 07 23.27  .82598 1.6958 134.0 21.9  36d 159
2023 06 03 16  16 14 59.456   +23 06 30.99  .82597 1.6958 134.0 21.9  36d 159
2023 06 03 17  16 14 55.404   +23 05 38.63  .82596 1.6958 134.0 21.9  36d 159
2023 06 03 18  16 14 51.354   +23 04 46.19  .82594 1.6958 134.0 21.9  36d 159
2023 06 03 19  16 14 47.305   +23 03 53.67  .82593 1.6958 134.0 21.9  36d 159
2023 06 03 20  16 14 43.258   +23 03 01.08  .82592 1.6958 134.0 21.9  36d 159
2023 06 03 21  16 14 39.212   +23 02 08.41  .82590 1.6958 134.0 21.9  36d 159
2023 06 03 22  16 14 35.169   +23 01 15.67  .82589 1.6958 134.0 21.9  36d 159
2023 06 03 23  16 14 31.126   +23 00 22.84  .82588 1.6958 134.0 21.9  36d 159
2023 06 04 00  16 14 27.086   +22 59 29.94  .82587 1.6958 134.0 21.9  36d 159
2023 06 04 01  16 14 23.047   +22 58 36.97  .82586 1.6958 134.0 21.9  36d 159
2023 06 04 02  16 14 19.010   +22 57 43.91  .82584 1.6958 134.0 21.9  36d 159
2023 06 04 03  16 14 14.974   +22 56 50.79  .82583 1.6958 134.0 21.9  36d 159
2023 06 04 04  16 14 10.940   +22 55 57.58  .82582 1.6958 134.0 21.9  36d 159
2023 06 04 05  16 14 06.908   +22 55 04.30  .82581 1.6957 134.0 21.9  36d 159
2023 06 04 06  16 14 02.878   +22 54 10.94  .82580 1.6957 134.0 21.9  36d 159
2023 06 04 07  16 13 58.849   +22 53 17.50  .82579 1.6957 134.0 21.9  37d 159
2023 06 04 08  16 13 54.822   +22 52 23.99  .82578 1.6957 134.0 21.9  37d 159
2023 06 04 09  16 13 50.796   +22 51 30.40  .82577 1.6957 134.0 21.9  37d 159
2023 06 04 10  16 13 46.773   +22 50 36.74  .82577 1.6957 134.0 21.9  37d 159
2023 06 04 11  16 13 42.751   +22 49 43.00  .82576 1.6957 134.0 21.9  37d 159
2023 06 04 12  16 13 38.731   +22 48 49.19  .82575 1.6957 134.0 21.9  37d 159
2023 06 04 13  16 13 34.712   +22 47 55.29  .82574 1.6957 134.0 21.9  37d 159
2023 06 04 14  16 13 30.696   +22 47 01.33  .82573 1.6957 134.0 21.9  37d 159
2023 06 04 15  16 13 26.681   +22 46 07.28  .82573 1.6957 134.0 21.9  37d 159
2023 06 04 16  16 13 22.668   +22 45 13.16  .82572 1.6957 134.0 21.9  37d 159
2023 06 04 17  16 13 18.657   +22 44 18.97  .82571 1.6957 134.0 21.9  37d 159
2023 06 04 18  16 13 14.647   +22 43 24.70  .82571 1.6957 134.0 21.9  37d 159